Index of /20260509/WXO-DD/model_rdps/10km/06/064
Name Last modified Size Description
Parent Directory -
20260509T06Z_MSC_RDPS_AbsoluteVorticity_IsbL-0250_RLatLon0.09_PT064H.grib2 2026-05-09 09:02 626K
20260509T06Z_MSC_RDPS_AbsoluteVorticity_IsbL-0500_RLatLon0.09_PT064H.grib2 2026-05-09 09:02 576K
20260509T06Z_MSC_RDPS_AbsoluteVorticity_IsbL-0700_RLatLon0.09_PT064H.grib2 2026-05-09 09:02 633K
20260509T06Z_MSC_RDPS_AbsoluteVorticity_IsbL-0850_RLatLon0.09_PT064H.grib2 2026-05-09 09:02 790K
20260509T06Z_MSC_RDPS_AirTemp_AGL-120m_RLatLon0.09_PT064H.grib2 2026-05-09 09:02 379K
20260509T06Z_MSC_RDPS_AirTemp_AGL-2m_RLatLon0.09_PT064H.grib2 2026-05-09 09:02 625K
20260509T06Z_MSC_RDPS_AirTemp_AGL-40m_RLatLon0.09_PT064H.grib2 2026-05-09 09:02 388K
20260509T06Z_MSC_RDPS_AirTemp_AGL-80m_RLatLon0.09_PT064H.grib2 2026-05-09 09:02 383K
20260509T06Z_MSC_RDPS_AirTemp_IsbL-0001_RLatLon0.09_PT064H.grib2 2026-05-09 09:02 319K
20260509T06Z_MSC_RDPS_AirTemp_IsbL-0005_RLatLon0.09_PT064H.grib2 2026-05-09 09:02 383K
20260509T06Z_MSC_RDPS_AirTemp_IsbL-0010_RLatLon0.09_PT064H.grib2 2026-05-09 09:02 394K
20260509T06Z_MSC_RDPS_AirTemp_IsbL-0020_RLatLon0.09_PT064H.grib2 2026-05-09 09:02 320K
20260509T06Z_MSC_RDPS_AirTemp_IsbL-0030_RLatLon0.09_PT064H.grib2 2026-05-09 09:02 344K
20260509T06Z_MSC_RDPS_AirTemp_IsbL-0050_RLatLon0.09_PT064H.grib2 2026-05-09 09:02 311K
20260509T06Z_MSC_RDPS_AirTemp_IsbL-0100_RLatLon0.09_PT064H.grib2 2026-05-09 09:02 422K
20260509T06Z_MSC_RDPS_AirTemp_IsbL-0150_RLatLon0.09_PT064H.grib2 2026-05-09 09:02 405K
20260509T06Z_MSC_RDPS_AirTemp_IsbL-0175_RLatLon0.09_PT064H.grib2 2026-05-09 09:02 399K
20260509T06Z_MSC_RDPS_AirTemp_IsbL-0200_RLatLon0.09_PT064H.grib2 2026-05-09 09:02 405K
20260509T06Z_MSC_RDPS_AirTemp_IsbL-0225_RLatLon0.09_PT064H.grib2 2026-05-09 09:02 414K
20260509T06Z_MSC_RDPS_AirTemp_IsbL-0250_RLatLon0.09_PT064H.grib2 2026-05-09 09:02 427K
20260509T06Z_MSC_RDPS_AirTemp_IsbL-0275_RLatLon0.09_PT064H.grib2 2026-05-09 09:02 406K
20260509T06Z_MSC_RDPS_AirTemp_IsbL-0300_RLatLon0.09_PT064H.grib2 2026-05-09 09:02 411K
20260509T06Z_MSC_RDPS_AirTemp_IsbL-0350_RLatLon0.09_PT064H.grib2 2026-05-09 09:02 423K
20260509T06Z_MSC_RDPS_AirTemp_IsbL-0400_RLatLon0.09_PT064H.grib2 2026-05-09 09:02 427K
20260509T06Z_MSC_RDPS_AirTemp_IsbL-0450_RLatLon0.09_PT064H.grib2 2026-05-09 09:02 436K
20260509T06Z_MSC_RDPS_AirTemp_IsbL-0500_RLatLon0.09_PT064H.grib2 2026-05-09 09:02 449K
20260509T06Z_MSC_RDPS_AirTemp_IsbL-0550_RLatLon0.09_PT064H.grib2 2026-05-09 09:02 469K
20260509T06Z_MSC_RDPS_AirTemp_IsbL-0600_RLatLon0.09_PT064H.grib2 2026-05-09 09:02 490K
20260509T06Z_MSC_RDPS_AirTemp_IsbL-0650_RLatLon0.09_PT064H.grib2 2026-05-09 09:02 508K
20260509T06Z_MSC_RDPS_AirTemp_IsbL-0700_RLatLon0.09_PT064H.grib2 2026-05-09 09:02 534K
20260509T06Z_MSC_RDPS_AirTemp_IsbL-0750_RLatLon0.09_PT064H.grib2 2026-05-09 09:02 533K
20260509T06Z_MSC_RDPS_AirTemp_IsbL-0800_RLatLon0.09_PT064H.grib2 2026-05-09 09:02 585K
20260509T06Z_MSC_RDPS_AirTemp_IsbL-0850_RLatLon0.09_PT064H.grib2 2026-05-09 09:02 629K
20260509T06Z_MSC_RDPS_AirTemp_IsbL-0875_RLatLon0.09_PT064H.grib2 2026-05-09 09:02 650K
20260509T06Z_MSC_RDPS_AirTemp_IsbL-0900_RLatLon0.09_PT064H.grib2 2026-05-09 09:02 529K
20260509T06Z_MSC_RDPS_AirTemp_IsbL-0925_RLatLon0.09_PT064H.grib2 2026-05-09 09:02 532K
20260509T06Z_MSC_RDPS_AirTemp_IsbL-0950_RLatLon0.09_PT064H.grib2 2026-05-09 09:02 535K
20260509T06Z_MSC_RDPS_AirTemp_IsbL-0970_RLatLon0.09_PT064H.grib2 2026-05-09 09:02 535K
20260509T06Z_MSC_RDPS_AirTemp_IsbL-0985_RLatLon0.09_PT064H.grib2 2026-05-09 09:02 524K
20260509T06Z_MSC_RDPS_AirTemp_IsbL-1000_RLatLon0.09_PT064H.grib2 2026-05-09 09:02 507K
20260509T06Z_MSC_RDPS_AirTemp_IsbL-1015_RLatLon0.09_PT064H.grib2 2026-05-09 09:02 509K
20260509T06Z_MSC_RDPS_Albedo_Sfc_RLatLon0.09_PT064H.grib2 2026-05-09 09:02 156K
20260509T06Z_MSC_RDPS_CAPE_Sfc_RLatLon0.09_PT064H.grib2 2026-05-09 09:02 1.8M
20260509T06Z_MSC_RDPS_CIN_Sfc_RLatLon0.09_PT064H.grib2 2026-05-09 09:02 1.4M
20260509T06Z_MSC_RDPS_CloudWater_EAtm_RLatLon0.09_PT064H.grib2 2026-05-09 09:02 233K
20260509T06Z_MSC_RDPS_ConvectivePrecip-Accum_Sfc_RLatLon0.09_PT064H.grib2 2026-05-09 09:02 1.3M
20260509T06Z_MSC_RDPS_DewPointDepression_AGL-2m_RLatLon0.09_PT064H.grib2 2026-05-09 09:02 419K
20260509T06Z_MSC_RDPS_DewPointDepression_IsbL-0001_RLatLon0.09_PT064H.grib2 2026-05-09 09:02 193
20260509T06Z_MSC_RDPS_DewPointDepression_IsbL-0005_RLatLon0.09_PT064H.grib2 2026-05-09 09:02 193
20260509T06Z_MSC_RDPS_DewPointDepression_IsbL-0010_RLatLon0.09_PT064H.grib2 2026-05-09 09:02 193
20260509T06Z_MSC_RDPS_DewPointDepression_IsbL-0020_RLatLon0.09_PT064H.grib2 2026-05-09 09:02 193
20260509T06Z_MSC_RDPS_DewPointDepression_IsbL-0030_RLatLon0.09_PT064H.grib2 2026-05-09 09:02 193
20260509T06Z_MSC_RDPS_DewPointDepression_IsbL-0050_RLatLon0.09_PT064H.grib2 2026-05-09 09:02 78K
20260509T06Z_MSC_RDPS_DewPointDepression_IsbL-0100_RLatLon0.09_PT064H.grib2 2026-05-09 09:02 113K
20260509T06Z_MSC_RDPS_DewPointDepression_IsbL-0150_RLatLon0.09_PT064H.grib2 2026-05-09 09:02 146K
20260509T06Z_MSC_RDPS_DewPointDepression_IsbL-0175_RLatLon0.09_PT064H.grib2 2026-05-09 09:02 169K
20260509T06Z_MSC_RDPS_DewPointDepression_IsbL-0200_RLatLon0.09_PT064H.grib2 2026-05-09 09:02 218K
20260509T06Z_MSC_RDPS_DewPointDepression_IsbL-0225_RLatLon0.09_PT064H.grib2 2026-05-09 09:02 262K
20260509T06Z_MSC_RDPS_DewPointDepression_IsbL-0250_RLatLon0.09_PT064H.grib2 2026-05-09 09:02 309K
20260509T06Z_MSC_RDPS_DewPointDepression_IsbL-0275_RLatLon0.09_PT064H.grib2 2026-05-09 09:02 314K
20260509T06Z_MSC_RDPS_DewPointDepression_IsbL-0300_RLatLon0.09_PT064H.grib2 2026-05-09 09:02 331K
20260509T06Z_MSC_RDPS_DewPointDepression_IsbL-0350_RLatLon0.09_PT064H.grib2 2026-05-09 09:02 338K
20260509T06Z_MSC_RDPS_DewPointDepression_IsbL-0400_RLatLon0.09_PT064H.grib2 2026-05-09 09:02 352K
20260509T06Z_MSC_RDPS_DewPointDepression_IsbL-0450_RLatLon0.09_PT064H.grib2 2026-05-09 09:02 362K
20260509T06Z_MSC_RDPS_DewPointDepression_IsbL-0500_RLatLon0.09_PT064H.grib2 2026-05-09 09:02 367K
20260509T06Z_MSC_RDPS_DewPointDepression_IsbL-0550_RLatLon0.09_PT064H.grib2 2026-05-09 09:02 377K
20260509T06Z_MSC_RDPS_DewPointDepression_IsbL-0600_RLatLon0.09_PT064H.grib2 2026-05-09 09:02 390K
20260509T06Z_MSC_RDPS_DewPointDepression_IsbL-0650_RLatLon0.09_PT064H.grib2 2026-05-09 09:02 400K
20260509T06Z_MSC_RDPS_DewPointDepression_IsbL-0700_RLatLon0.09_PT064H.grib2 2026-05-09 09:02 413K
20260509T06Z_MSC_RDPS_DewPointDepression_IsbL-0750_RLatLon0.09_PT064H.grib2 2026-05-09 09:02 432K
20260509T06Z_MSC_RDPS_DewPointDepression_IsbL-0800_RLatLon0.09_PT064H.grib2 2026-05-09 09:02 467K
20260509T06Z_MSC_RDPS_DewPointDepression_IsbL-0850_RLatLon0.09_PT064H.grib2 2026-05-09 09:02 474K
20260509T06Z_MSC_RDPS_DewPointDepression_IsbL-0875_RLatLon0.09_PT064H.grib2 2026-05-09 09:02 469K
20260509T06Z_MSC_RDPS_DewPointDepression_IsbL-0900_RLatLon0.09_PT064H.grib2 2026-05-09 09:02 460K
20260509T06Z_MSC_RDPS_DewPointDepression_IsbL-0925_RLatLon0.09_PT064H.grib2 2026-05-09 09:02 450K
20260509T06Z_MSC_RDPS_DewPointDepression_IsbL-0950_RLatLon0.09_PT064H.grib2 2026-05-09 09:02 446K
20260509T06Z_MSC_RDPS_DewPointDepression_IsbL-0970_RLatLon0.09_PT064H.grib2 2026-05-09 09:02 441K
20260509T06Z_MSC_RDPS_DewPointDepression_IsbL-0985_RLatLon0.09_PT064H.grib2 2026-05-09 09:02 433K
20260509T06Z_MSC_RDPS_DewPointDepression_IsbL-1000_RLatLon0.09_PT064H.grib2 2026-05-09 09:02 427K
20260509T06Z_MSC_RDPS_DewPointDepression_IsbL-1015_RLatLon0.09_PT064H.grib2 2026-05-09 09:02 416K
20260509T06Z_MSC_RDPS_DewPoint_AGL-2m_RLatLon0.09_PT064H.grib2 2026-05-09 09:02 398K
20260509T06Z_MSC_RDPS_DownwardLongwaveRadiationFlux-Accum_Sfc_RLatLon0.09_PT064H.grib2 2026-05-09 09:02 414K
20260509T06Z_MSC_RDPS_DownwardShortwaveRadiationFlux-Accum_NTAtm_RLatLon0.09_PT064H.grib2 2026-05-09 09:02 165K
20260509T06Z_MSC_RDPS_DownwardShortwaveRadiationFlux-Accum_Sfc_RLatLon0.09_PT064H.grib2 2026-05-09 09:02 626K
20260509T06Z_MSC_RDPS_FreezingRain-Accum1h_Sfc_RLatLon0.09_PT064H.grib2 2026-05-09 09:02 24K
20260509T06Z_MSC_RDPS_FreezingRain-Accum_Sfc_RLatLon0.09_PT064H.grib2 2026-05-09 09:02 190K
20260509T06Z_MSC_RDPS_GeopotentialHeight_IsbL-0001_RLatLon0.09_PT064H.grib2 2026-05-09 09:02 280K
20260509T06Z_MSC_RDPS_GeopotentialHeight_IsbL-0005_RLatLon0.09_PT064H.grib2 2026-05-09 09:02 342K
20260509T06Z_MSC_RDPS_GeopotentialHeight_IsbL-0010_RLatLon0.09_PT064H.grib2 2026-05-09 09:02 311K
20260509T06Z_MSC_RDPS_GeopotentialHeight_IsbL-0020_RLatLon0.09_PT064H.grib2 2026-05-09 09:02 311K
20260509T06Z_MSC_RDPS_GeopotentialHeight_IsbL-0030_RLatLon0.09_PT064H.grib2 2026-05-09 09:02 314K
20260509T06Z_MSC_RDPS_GeopotentialHeight_IsbL-0050_RLatLon0.09_PT064H.grib2 2026-05-09 09:02 312K
20260509T06Z_MSC_RDPS_GeopotentialHeight_IsbL-0100_RLatLon0.09_PT064H.grib2 2026-05-09 09:02 286K
20260509T06Z_MSC_RDPS_GeopotentialHeight_IsbL-0150_RLatLon0.09_PT064H.grib2 2026-05-09 09:02 227K
20260509T06Z_MSC_RDPS_GeopotentialHeight_IsbL-0175_RLatLon0.09_PT064H.grib2 2026-05-09 09:02 230K
20260509T06Z_MSC_RDPS_GeopotentialHeight_IsbL-0200_RLatLon0.09_PT064H.grib2 2026-05-09 09:02 233K
20260509T06Z_MSC_RDPS_GeopotentialHeight_IsbL-0225_RLatLon0.09_PT064H.grib2 2026-05-09 09:02 235K
20260509T06Z_MSC_RDPS_GeopotentialHeight_IsbL-0250_RLatLon0.09_PT064H.grib2 2026-05-09 09:02 236K
20260509T06Z_MSC_RDPS_GeopotentialHeight_IsbL-0275_RLatLon0.09_PT064H.grib2 2026-05-09 09:02 235K
20260509T06Z_MSC_RDPS_GeopotentialHeight_IsbL-0300_RLatLon0.09_PT064H.grib2 2026-05-09 09:02 235K
20260509T06Z_MSC_RDPS_GeopotentialHeight_IsbL-0350_RLatLon0.09_PT064H.grib2 2026-05-09 09:02 230K
20260509T06Z_MSC_RDPS_GeopotentialHeight_IsbL-0400_RLatLon0.09_PT064H.grib2 2026-05-09 09:02 300K
20260509T06Z_MSC_RDPS_GeopotentialHeight_IsbL-0450_RLatLon0.09_PT064H.grib2 2026-05-09 09:02 296K
20260509T06Z_MSC_RDPS_GeopotentialHeight_IsbL-0500_RLatLon0.09_PT064H.grib2 2026-05-09 09:02 291K
20260509T06Z_MSC_RDPS_GeopotentialHeight_IsbL-0550_RLatLon0.09_PT064H.grib2 2026-05-09 09:02 287K
20260509T06Z_MSC_RDPS_GeopotentialHeight_IsbL-0600_RLatLon0.09_PT064H.grib2 2026-05-09 09:02 284K
20260509T06Z_MSC_RDPS_GeopotentialHeight_IsbL-0650_RLatLon0.09_PT064H.grib2 2026-05-09 09:02 256K
20260509T06Z_MSC_RDPS_GeopotentialHeight_IsbL-0700_RLatLon0.09_PT064H.grib2 2026-05-09 09:02 256K
20260509T06Z_MSC_RDPS_GeopotentialHeight_IsbL-0750_RLatLon0.09_PT064H.grib2 2026-05-09 09:02 340K
20260509T06Z_MSC_RDPS_GeopotentialHeight_IsbL-0800_RLatLon0.09_PT064H.grib2 2026-05-09 09:02 347K
20260509T06Z_MSC_RDPS_GeopotentialHeight_IsbL-0850_RLatLon0.09_PT064H.grib2 2026-05-09 09:02 355K
20260509T06Z_MSC_RDPS_GeopotentialHeight_IsbL-0875_RLatLon0.09_PT064H.grib2 2026-05-09 09:02 355K
20260509T06Z_MSC_RDPS_GeopotentialHeight_IsbL-0900_RLatLon0.09_PT064H.grib2 2026-05-09 09:02 360K
20260509T06Z_MSC_RDPS_GeopotentialHeight_IsbL-0925_RLatLon0.09_PT064H.grib2 2026-05-09 09:02 362K
20260509T06Z_MSC_RDPS_GeopotentialHeight_IsbL-0950_RLatLon0.09_PT064H.grib2 2026-05-09 09:02 367K
20260509T06Z_MSC_RDPS_GeopotentialHeight_IsbL-0970_RLatLon0.09_PT064H.grib2 2026-05-09 09:02 373K
20260509T06Z_MSC_RDPS_GeopotentialHeight_IsbL-0985_RLatLon0.09_PT064H.grib2 2026-05-09 09:02 383K
20260509T06Z_MSC_RDPS_GeopotentialHeight_IsbL-1000_RLatLon0.09_PT064H.grib2 2026-05-09 09:02 396K
20260509T06Z_MSC_RDPS_GeopotentialHeight_IsbL-1015_RLatLon0.09_PT064H.grib2 2026-05-09 09:02 413K
20260509T06Z_MSC_RDPS_HighLowPressure_MSL_RLatLon0.09_PT064H.json 2026-05-09 08:55 23K
20260509T06Z_MSC_RDPS_Humidex_Sfc_RLatLon0.09_PT064H.grib2 2026-05-09 09:02 2.4M
20260509T06Z_MSC_RDPS_IcePellets-Accum1h_Sfc_RLatLon0.09_PT064H.grib2 2026-05-09 09:02 11K
20260509T06Z_MSC_RDPS_IcePellets-Accum_Sfc_RLatLon0.09_PT064H.grib2 2026-05-09 09:02 44K
20260509T06Z_MSC_RDPS_KIndex_Sfc_RLatLon0.09_PT064H.grib2 2026-05-09 09:02 2.5M
20260509T06Z_MSC_RDPS_LatentHeatNetFlux_Sfc_RLatLon0.09_PT064H.grib2 2026-05-09 09:02 310K
20260509T06Z_MSC_RDPS_LiftedIndex-MU-VT_IsbL-0500_RLatLon0.09_PT064H.grib2 2026-05-09 09:02 2.4M
20260509T06Z_MSC_RDPS_NetLongwaveRadiationFlux-Accum_Sfc_RLatLon0.09_PT064H.grib2 2026-05-09 09:02 597K
20260509T06Z_MSC_RDPS_NetShortwaveRadiationFlux-Accum_Sfc_RLatLon0.09_PT064H.grib2 2026-05-09 09:02 625K
20260509T06Z_MSC_RDPS_PlanetaryBoundaryLayerHeight_Sfc_RLatLon0.09_PT064H.grib2 2026-05-09 09:02 1.0M
20260509T06Z_MSC_RDPS_Precip-Accum1h_Sfc_RLatLon0.09_PT064H.grib2 2026-05-09 09:02 1.2M
20260509T06Z_MSC_RDPS_Precip-Accum_Sfc_RLatLon0.09_PT064H.grib2 2026-05-09 09:02 2.1M
20260509T06Z_MSC_RDPS_PrecipRate_Sfc_RLatLon0.09_PT064H.grib2 2026-05-09 09:02 189K
20260509T06Z_MSC_RDPS_PrecipType-Instant_Sfc_RLatLon0.09_PT064H.grib2 2026-05-09 09:02 634K
20260509T06Z_MSC_RDPS_Pressure-Trend3h_Sfc_RLatLon0.09_PT064H.grib2 2026-05-09 09:02 1.2M
20260509T06Z_MSC_RDPS_Pressure_MSL_RLatLon0.09_PT064H.grib2 2026-05-09 09:02 328K
20260509T06Z_MSC_RDPS_Pressure_PVU-1.5_RLatLon0.09_PT064H.grib2 2026-05-09 09:02 2.3M
20260509T06Z_MSC_RDPS_Pressure_PVU-1_RLatLon0.09_PT064H.grib2 2026-05-09 09:02 2.4M
20260509T06Z_MSC_RDPS_Pressure_PVU-2_RLatLon0.09_PT064H.grib2 2026-05-09 09:02 2.4M
20260509T06Z_MSC_RDPS_Pressure_Sfc_RLatLon0.09_PT064H.grib2 2026-05-09 09:02 497K
20260509T06Z_MSC_RDPS_RadiativeTemp_Sfc_RLatLon0.09_PT064H.grib2 2026-05-09 09:02 330K
20260509T06Z_MSC_RDPS_Rain-Accum1h_Sfc_RLatLon0.09_PT064H.grib2 2026-05-09 09:02 681K
20260509T06Z_MSC_RDPS_Rain-Accum_Sfc_RLatLon0.09_PT064H.grib2 2026-05-09 09:02 1.9M
20260509T06Z_MSC_RDPS_RelativeHumidity_AGL-2m_RLatLon0.09_PT064H.grib2 2026-05-09 09:02 1.0M
20260509T06Z_MSC_RDPS_RelativeHumidity_IsbL-0010_RLatLon0.09_PT064H.grib2 2026-05-09 09:02 554K
20260509T06Z_MSC_RDPS_RelativeHumidity_IsbL-0020_RLatLon0.09_PT064H.grib2 2026-05-09 09:02 627K
20260509T06Z_MSC_RDPS_RelativeHumidity_IsbL-0030_RLatLon0.09_PT064H.grib2 2026-05-09 09:02 618K
20260509T06Z_MSC_RDPS_RelativeHumidity_IsbL-0050_RLatLon0.09_PT064H.grib2 2026-05-09 09:02 352K
20260509T06Z_MSC_RDPS_RelativeHumidity_IsbL-0100_RLatLon0.09_PT064H.grib2 2026-05-09 09:02 276K
20260509T06Z_MSC_RDPS_RelativeHumidity_IsbL-0150_RLatLon0.09_PT064H.grib2 2026-05-09 09:02 416K
20260509T06Z_MSC_RDPS_RelativeHumidity_IsbL-0175_RLatLon0.09_PT064H.grib2 2026-05-09 09:02 471K
20260509T06Z_MSC_RDPS_RelativeHumidity_IsbL-0200_RLatLon0.09_PT064H.grib2 2026-05-09 09:02 541K
20260509T06Z_MSC_RDPS_RelativeHumidity_IsbL-0225_RLatLon0.09_PT064H.grib2 2026-05-09 09:02 620K
20260509T06Z_MSC_RDPS_RelativeHumidity_IsbL-0250_RLatLon0.09_PT064H.grib2 2026-05-09 09:02 703K
20260509T06Z_MSC_RDPS_RelativeHumidity_IsbL-0275_RLatLon0.09_PT064H.grib2 2026-05-09 09:02 732K
20260509T06Z_MSC_RDPS_RelativeHumidity_IsbL-0300_RLatLon0.09_PT064H.grib2 2026-05-09 09:02 774K
20260509T06Z_MSC_RDPS_RelativeHumidity_IsbL-0350_RLatLon0.09_PT064H.grib2 2026-05-09 09:02 789K
20260509T06Z_MSC_RDPS_RelativeHumidity_IsbL-0400_RLatLon0.09_PT064H.grib2 2026-05-09 09:02 806K
20260509T06Z_MSC_RDPS_RelativeHumidity_IsbL-0450_RLatLon0.09_PT064H.grib2 2026-05-09 09:02 819K
20260509T06Z_MSC_RDPS_RelativeHumidity_IsbL-0500_RLatLon0.09_PT064H.grib2 2026-05-09 09:02 835K
20260509T06Z_MSC_RDPS_RelativeHumidity_IsbL-0550_RLatLon0.09_PT064H.grib2 2026-05-09 09:02 843K
20260509T06Z_MSC_RDPS_RelativeHumidity_IsbL-0600_RLatLon0.09_PT064H.grib2 2026-05-09 09:02 866K
20260509T06Z_MSC_RDPS_RelativeHumidity_IsbL-0650_RLatLon0.09_PT064H.grib2 2026-05-09 09:02 884K
20260509T06Z_MSC_RDPS_RelativeHumidity_IsbL-0700_RLatLon0.09_PT064H.grib2 2026-05-09 09:02 919K
20260509T06Z_MSC_RDPS_RelativeHumidity_IsbL-0750_RLatLon0.09_PT064H.grib2 2026-05-09 09:02 958K
20260509T06Z_MSC_RDPS_RelativeHumidity_IsbL-0800_RLatLon0.09_PT064H.grib2 2026-05-09 09:02 1.0M
20260509T06Z_MSC_RDPS_RelativeHumidity_IsbL-0850_RLatLon0.09_PT064H.grib2 2026-05-09 09:02 1.0M
20260509T06Z_MSC_RDPS_RelativeHumidity_IsbL-0875_RLatLon0.09_PT064H.grib2 2026-05-09 09:02 1.1M
20260509T06Z_MSC_RDPS_RelativeHumidity_IsbL-0900_RLatLon0.09_PT064H.grib2 2026-05-09 09:02 1.1M
20260509T06Z_MSC_RDPS_RelativeHumidity_IsbL-0925_RLatLon0.09_PT064H.grib2 2026-05-09 09:02 1.1M
20260509T06Z_MSC_RDPS_RelativeHumidity_IsbL-0950_RLatLon0.09_PT064H.grib2 2026-05-09 09:02 1.1M
20260509T06Z_MSC_RDPS_RelativeHumidity_IsbL-0970_RLatLon0.09_PT064H.grib2 2026-05-09 09:02 1.1M
20260509T06Z_MSC_RDPS_RelativeHumidity_IsbL-0985_RLatLon0.09_PT064H.grib2 2026-05-09 09:02 1.0M
20260509T06Z_MSC_RDPS_RelativeHumidity_IsbL-1000_RLatLon0.09_PT064H.grib2 2026-05-09 09:02 1.0M
20260509T06Z_MSC_RDPS_RelativeHumidity_IsbL-1015_RLatLon0.09_PT064H.grib2 2026-05-09 09:02 1.0M
20260509T06Z_MSC_RDPS_Runoff-Accum_Sfc_RLatLon0.09_PT064H.grib2 2026-05-09 09:02 49K
20260509T06Z_MSC_RDPS_SWEATIndex_Sfc_RLatLon0.09_PT064H.grib2 2026-05-09 09:02 2.5M
20260509T06Z_MSC_RDPS_SeeingIndex_EAtm_RLatLon0.09_PT064H.grib2 2026-05-09 09:02 1.1M
20260509T06Z_MSC_RDPS_SensibleHeatNetFlux_Sfc_RLatLon0.09_PT064H.grib2 2026-05-09 09:02 266K
20260509T06Z_MSC_RDPS_ShowalterIndex_IsbL-0500_RLatLon0.09_PT064H.grib2 2026-05-09 09:02 2.6M
20260509T06Z_MSC_RDPS_SkyTransparencyIndex_EAtm_RLatLon0.09_PT064H.grib2 2026-05-09 09:02 716K
20260509T06Z_MSC_RDPS_Snow-Accum1h_Sfc_RLatLon0.09_PT064H.grib2 2026-05-09 09:02 424K
20260509T06Z_MSC_RDPS_Snow-Accum_Sfc_RLatLon0.09_PT064H.grib2 2026-05-09 09:02 663K
20260509T06Z_MSC_RDPS_SnowDensity_Sfc_RLatLon0.09_PT064H.grib2 2026-05-09 09:02 169K
20260509T06Z_MSC_RDPS_SnowDepth_Sfc_RLatLon0.09_PT064H.grib2 2026-05-09 09:02 613K
20260509T06Z_MSC_RDPS_SoilTemp_DBS-0to10cm_RLatLon0.09_PT064H.grib2 2026-05-09 09:02 245K
20260509T06Z_MSC_RDPS_SoilTemp_Sfc_RLatLon0.09_PT064H.grib2 2026-05-09 09:02 288K
20260509T06Z_MSC_RDPS_SoilVolumetricIceContent_Sfc_RLatLon0.09_PT064H.grib2 2026-05-09 09:02 140K
20260509T06Z_MSC_RDPS_SoilVolumetricWaterContent_DBS-0to10cm_RLatLon0.09_PT064H.grib2 2026-05-09 09:02 295K
20260509T06Z_MSC_RDPS_SoilVolumetricWaterContent_DBS-0to1cm_RLatLon0.09_PT064H.grib2 2026-05-09 09:02 348K
20260509T06Z_MSC_RDPS_SpecificHumidity_AGL-120m_RLatLon0.09_PT064H.grib2 2026-05-09 09:02 511K
20260509T06Z_MSC_RDPS_SpecificHumidity_AGL-2m_RLatLon0.09_PT064H.grib2 2026-05-09 09:02 687K
20260509T06Z_MSC_RDPS_SpecificHumidity_AGL-40m_RLatLon0.09_PT064H.grib2 2026-05-09 09:02 516K
20260509T06Z_MSC_RDPS_SpecificHumidity_AGL-80m_RLatLon0.09_PT064H.grib2 2026-05-09 09:02 512K
20260509T06Z_MSC_RDPS_SpecificHumidity_IsbL-0001_RLatLon0.09_PT064H.grib2 2026-05-09 09:02 367K
20260509T06Z_MSC_RDPS_SpecificHumidity_IsbL-0005_RLatLon0.09_PT064H.grib2 2026-05-09 09:02 362K
20260509T06Z_MSC_RDPS_SpecificHumidity_IsbL-0010_RLatLon0.09_PT064H.grib2 2026-05-09 09:02 391K
20260509T06Z_MSC_RDPS_SpecificHumidity_IsbL-0020_RLatLon0.09_PT064H.grib2 2026-05-09 09:02 375K
20260509T06Z_MSC_RDPS_SpecificHumidity_IsbL-0030_RLatLon0.09_PT064H.grib2 2026-05-09 09:02 364K
20260509T06Z_MSC_RDPS_SpecificHumidity_IsbL-0050_RLatLon0.09_PT064H.grib2 2026-05-09 09:02 475K
20260509T06Z_MSC_RDPS_SpecificHumidity_IsbL-0100_RLatLon0.09_PT064H.grib2 2026-05-09 09:02 405K
20260509T06Z_MSC_RDPS_SpecificHumidity_IsbL-0150_RLatLon0.09_PT064H.grib2 2026-05-09 09:02 459K
20260509T06Z_MSC_RDPS_SpecificHumidity_IsbL-0175_RLatLon0.09_PT064H.grib2 2026-05-09 09:02 436K
20260509T06Z_MSC_RDPS_SpecificHumidity_IsbL-0200_RLatLon0.09_PT064H.grib2 2026-05-09 09:02 471K
20260509T06Z_MSC_RDPS_SpecificHumidity_IsbL-0225_RLatLon0.09_PT064H.grib2 2026-05-09 09:02 464K
20260509T06Z_MSC_RDPS_SpecificHumidity_IsbL-0250_RLatLon0.09_PT064H.grib2 2026-05-09 09:02 533K
20260509T06Z_MSC_RDPS_SpecificHumidity_IsbL-0275_RLatLon0.09_PT064H.grib2 2026-05-09 09:02 494K
20260509T06Z_MSC_RDPS_SpecificHumidity_IsbL-0300_RLatLon0.09_PT064H.grib2 2026-05-09 09:02 468K
20260509T06Z_MSC_RDPS_SpecificHumidity_IsbL-0350_RLatLon0.09_PT064H.grib2 2026-05-09 09:02 461K
20260509T06Z_MSC_RDPS_SpecificHumidity_IsbL-0400_RLatLon0.09_PT064H.grib2 2026-05-09 09:02 545K
20260509T06Z_MSC_RDPS_SpecificHumidity_IsbL-0450_RLatLon0.09_PT064H.grib2 2026-05-09 09:02 485K
20260509T06Z_MSC_RDPS_SpecificHumidity_IsbL-0500_RLatLon0.09_PT064H.grib2 2026-05-09 09:02 540K
20260509T06Z_MSC_RDPS_SpecificHumidity_IsbL-0550_RLatLon0.09_PT064H.grib2 2026-05-09 09:02 615K
20260509T06Z_MSC_RDPS_SpecificHumidity_IsbL-0600_RLatLon0.09_PT064H.grib2 2026-05-09 09:02 672K
20260509T06Z_MSC_RDPS_SpecificHumidity_IsbL-0650_RLatLon0.09_PT064H.grib2 2026-05-09 09:02 592K
20260509T06Z_MSC_RDPS_SpecificHumidity_IsbL-0700_RLatLon0.09_PT064H.grib2 2026-05-09 09:02 638K
20260509T06Z_MSC_RDPS_SpecificHumidity_IsbL-0750_RLatLon0.09_PT064H.grib2 2026-05-09 09:02 697K
20260509T06Z_MSC_RDPS_SpecificHumidity_IsbL-0800_RLatLon0.09_PT064H.grib2 2026-05-09 09:02 783K
20260509T06Z_MSC_RDPS_SpecificHumidity_IsbL-0850_RLatLon0.09_PT064H.grib2 2026-05-09 09:02 838K
20260509T06Z_MSC_RDPS_SpecificHumidity_IsbL-0875_RLatLon0.09_PT064H.grib2 2026-05-09 09:02 716K
20260509T06Z_MSC_RDPS_SpecificHumidity_IsbL-0900_RLatLon0.09_PT064H.grib2 2026-05-09 09:02 724K
20260509T06Z_MSC_RDPS_SpecificHumidity_IsbL-0925_RLatLon0.09_PT064H.grib2 2026-05-09 09:02 729K
20260509T06Z_MSC_RDPS_SpecificHumidity_IsbL-0950_RLatLon0.09_PT064H.grib2 2026-05-09 09:02 735K
20260509T06Z_MSC_RDPS_SpecificHumidity_IsbL-0970_RLatLon0.09_PT064H.grib2 2026-05-09 09:02 731K
20260509T06Z_MSC_RDPS_SpecificHumidity_IsbL-0985_RLatLon0.09_PT064H.grib2 2026-05-09 09:02 721K
20260509T06Z_MSC_RDPS_SpecificHumidity_IsbL-1000_RLatLon0.09_PT064H.grib2 2026-05-09 09:02 712K
20260509T06Z_MSC_RDPS_SpecificHumidity_IsbL-1015_RLatLon0.09_PT064H.grib2 2026-05-09 09:02 701K
20260509T06Z_MSC_RDPS_SpecificHumidity_Sfc_RLatLon0.09_PT064H.grib2 2026-05-09 09:02 361K
20260509T06Z_MSC_RDPS_StormRelativeHelicity_EtaL-10000_RLatLon0.09_PT064H.grib2 2026-05-09 09:02 1.1M
20260509T06Z_MSC_RDPS_StormSeverityIndex_EtaL-10000_RLatLon0.09_PT064H.grib2 2026-05-09 09:02 1.2M
20260509T06Z_MSC_RDPS_Thickness_IsbL-0850to0700_RLatLon0.09_PT064H.grib2 2026-05-09 09:02 250K
20260509T06Z_MSC_RDPS_Thickness_IsbL-1000to0500_RLatLon0.09_PT064H.grib2 2026-05-09 09:02 197K
20260509T06Z_MSC_RDPS_Thickness_IsbL-1000to0850_RLatLon0.09_PT064H.grib2 2026-05-09 09:02 262K
20260509T06Z_MSC_RDPS_TotalCloudCover_Sfc_RLatLon0.09_PT064H.grib2 2026-05-09 09:02 672K
20260509T06Z_MSC_RDPS_TotalTotalsIndex_Sfc_RLatLon0.09_PT064H.grib2 2026-05-09 09:02 2.4M
20260509T06Z_MSC_RDPS_UVIndex-ClearSky_Sfc_RLatLon0.09_PT064H.grib2 2026-05-09 09:02 180K
20260509T06Z_MSC_RDPS_UVIndex_Sfc_RLatLon0.09_PT064H.grib2 2026-05-09 09:02 432K
20260509T06Z_MSC_RDPS_UpwardLongwaveRadiationFlux_NTAtm_RLatLon0.09_PT064H.grib2 2026-05-09 09:02 390K
20260509T06Z_MSC_RDPS_UpwardShortwaveRadiationFlux_NTAtm_RLatLon0.09_PT064H.grib2 2026-05-09 09:02 472K
20260509T06Z_MSC_RDPS_VerticalVelocity_IsbL-0250_RLatLon0.09_PT064H.grib2 2026-05-09 09:02 421K
20260509T06Z_MSC_RDPS_VerticalVelocity_IsbL-0500_RLatLon0.09_PT064H.grib2 2026-05-09 09:02 542K
20260509T06Z_MSC_RDPS_VerticalVelocity_IsbL-0700_RLatLon0.09_PT064H.grib2 2026-05-09 09:02 604K
20260509T06Z_MSC_RDPS_VerticalVelocity_IsbL-0850_RLatLon0.09_PT064H.grib2 2026-05-09 09:02 664K
20260509T06Z_MSC_RDPS_VerticalWindShear_EtaL-6500_RLatLon0.09_PT064H.grib2 2026-05-09 09:02 1.2M
20260509T06Z_MSC_RDPS_WindChill_Sfc_RLatLon0.09_PT064H.grib2 2026-05-09 09:02 1.2M
20260509T06Z_MSC_RDPS_WindDir_AGL-10m_RLatLon0.09_PT064H.grib2 2026-05-09 09:02 971K
20260509T06Z_MSC_RDPS_WindDir_AGL-120m_RLatLon0.09_PT064H.grib2 2026-05-09 09:02 617K
20260509T06Z_MSC_RDPS_WindDir_AGL-40m_RLatLon0.09_PT064H.grib2 2026-05-09 09:02 638K
20260509T06Z_MSC_RDPS_WindDir_AGL-80m_RLatLon0.09_PT064H.grib2 2026-05-09 09:02 626K
20260509T06Z_MSC_RDPS_WindDir_IsbL-0001_RLatLon0.09_PT064H.grib2 2026-05-09 09:02 284K
20260509T06Z_MSC_RDPS_WindDir_IsbL-0005_RLatLon0.09_PT064H.grib2 2026-05-09 09:02 371K
20260509T06Z_MSC_RDPS_WindDir_IsbL-0010_RLatLon0.09_PT064H.grib2 2026-05-09 09:02 408K
20260509T06Z_MSC_RDPS_WindDir_IsbL-0020_RLatLon0.09_PT064H.grib2 2026-05-09 09:02 458K
20260509T06Z_MSC_RDPS_WindDir_IsbL-0030_RLatLon0.09_PT064H.grib2 2026-05-09 09:02 440K
20260509T06Z_MSC_RDPS_WindDir_IsbL-0050_RLatLon0.09_PT064H.grib2 2026-05-09 09:02 436K
20260509T06Z_MSC_RDPS_WindDir_IsbL-0100_RLatLon0.09_PT064H.grib2 2026-05-09 09:02 426K
20260509T06Z_MSC_RDPS_WindDir_IsbL-0150_RLatLon0.09_PT064H.grib2 2026-05-09 09:02 425K
20260509T06Z_MSC_RDPS_WindDir_IsbL-0175_RLatLon0.09_PT064H.grib2 2026-05-09 09:02 446K
20260509T06Z_MSC_RDPS_WindDir_IsbL-0200_RLatLon0.09_PT064H.grib2 2026-05-09 09:02 459K
20260509T06Z_MSC_RDPS_WindDir_IsbL-0225_RLatLon0.09_PT064H.grib2 2026-05-09 09:02 461K
20260509T06Z_MSC_RDPS_WindDir_IsbL-0250_RLatLon0.09_PT064H.grib2 2026-05-09 09:02 459K
20260509T06Z_MSC_RDPS_WindDir_IsbL-0275_RLatLon0.09_PT064H.grib2 2026-05-09 09:02 483K
20260509T06Z_MSC_RDPS_WindDir_IsbL-0300_RLatLon0.09_PT064H.grib2 2026-05-09 09:02 485K
20260509T06Z_MSC_RDPS_WindDir_IsbL-0350_RLatLon0.09_PT064H.grib2 2026-05-09 09:02 505K
20260509T06Z_MSC_RDPS_WindDir_IsbL-0400_RLatLon0.09_PT064H.grib2 2026-05-09 09:02 527K
20260509T06Z_MSC_RDPS_WindDir_IsbL-0450_RLatLon0.09_PT064H.grib2 2026-05-09 09:02 547K
20260509T06Z_MSC_RDPS_WindDir_IsbL-0500_RLatLon0.09_PT064H.grib2 2026-05-09 09:02 567K
20260509T06Z_MSC_RDPS_WindDir_IsbL-0550_RLatLon0.09_PT064H.grib2 2026-05-09 09:02 581K
20260509T06Z_MSC_RDPS_WindDir_IsbL-0600_RLatLon0.09_PT064H.grib2 2026-05-09 09:02 597K
20260509T06Z_MSC_RDPS_WindDir_IsbL-0650_RLatLon0.09_PT064H.grib2 2026-05-09 09:02 631K
20260509T06Z_MSC_RDPS_WindDir_IsbL-0700_RLatLon0.09_PT064H.grib2 2026-05-09 09:02 675K
20260509T06Z_MSC_RDPS_WindDir_IsbL-0750_RLatLon0.09_PT064H.grib2 2026-05-09 09:02 722K
20260509T06Z_MSC_RDPS_WindDir_IsbL-0800_RLatLon0.09_PT064H.grib2 2026-05-09 09:02 793K
20260509T06Z_MSC_RDPS_WindDir_IsbL-0850_RLatLon0.09_PT064H.grib2 2026-05-09 09:02 858K
20260509T06Z_MSC_RDPS_WindDir_IsbL-0875_RLatLon0.09_PT064H.grib2 2026-05-09 09:02 882K
20260509T06Z_MSC_RDPS_WindDir_IsbL-0900_RLatLon0.09_PT064H.grib2 2026-05-09 09:02 906K
20260509T06Z_MSC_RDPS_WindDir_IsbL-0925_RLatLon0.09_PT064H.grib2 2026-05-09 09:02 920K
20260509T06Z_MSC_RDPS_WindDir_IsbL-0950_RLatLon0.09_PT064H.grib2 2026-05-09 09:02 920K
20260509T06Z_MSC_RDPS_WindDir_IsbL-0970_RLatLon0.09_PT064H.grib2 2026-05-09 09:02 921K
20260509T06Z_MSC_RDPS_WindDir_IsbL-0985_RLatLon0.09_PT064H.grib2 2026-05-09 09:02 933K
20260509T06Z_MSC_RDPS_WindDir_IsbL-1000_RLatLon0.09_PT064H.grib2 2026-05-09 09:02 950K
20260509T06Z_MSC_RDPS_WindDir_IsbL-1015_RLatLon0.09_PT064H.grib2 2026-05-09 09:02 966K
20260509T06Z_MSC_RDPS_WindGust-Max_AGL-10m_RLatLon0.09_PT064H.grib2 2026-05-09 09:02 1.0M
20260509T06Z_MSC_RDPS_WindGust-Min_AGL-10m_RLatLon0.09_PT064H.grib2 2026-05-09 09:02 1.0M
20260509T06Z_MSC_RDPS_WindGust_AGL-10m_RLatLon0.09_PT064H.grib2 2026-05-09 09:02 1.0M
20260509T06Z_MSC_RDPS_WindSpeed_AGL-10m_RLatLon0.09_PT064H.grib2 2026-05-09 09:02 848K
20260509T06Z_MSC_RDPS_WindSpeed_AGL-120m_RLatLon0.09_PT064H.grib2 2026-05-09 09:02 550K
20260509T06Z_MSC_RDPS_WindSpeed_AGL-40m_RLatLon0.09_PT064H.grib2 2026-05-09 09:02 545K
20260509T06Z_MSC_RDPS_WindSpeed_AGL-80m_RLatLon0.09_PT064H.grib2 2026-05-09 09:02 540K
20260509T06Z_MSC_RDPS_WindSpeed_IsbL-0001_RLatLon0.09_PT064H.grib2 2026-05-09 09:02 253K
20260509T06Z_MSC_RDPS_WindSpeed_IsbL-0005_RLatLon0.09_PT064H.grib2 2026-05-09 09:02 348K
20260509T06Z_MSC_RDPS_WindSpeed_IsbL-0010_RLatLon0.09_PT064H.grib2 2026-05-09 09:02 369K
20260509T06Z_MSC_RDPS_WindSpeed_IsbL-0020_RLatLon0.09_PT064H.grib2 2026-05-09 09:02 330K
20260509T06Z_MSC_RDPS_WindSpeed_IsbL-0030_RLatLon0.09_PT064H.grib2 2026-05-09 09:02 326K
20260509T06Z_MSC_RDPS_WindSpeed_IsbL-0050_RLatLon0.09_PT064H.grib2 2026-05-09 09:02 446K
20260509T06Z_MSC_RDPS_WindSpeed_IsbL-0100_RLatLon0.09_PT064H.grib2 2026-05-09 09:02 469K
20260509T06Z_MSC_RDPS_WindSpeed_IsbL-0150_RLatLon0.09_PT064H.grib2 2026-05-09 09:02 369K
20260509T06Z_MSC_RDPS_WindSpeed_IsbL-0175_RLatLon0.09_PT064H.grib2 2026-05-09 09:02 397K
20260509T06Z_MSC_RDPS_WindSpeed_IsbL-0200_RLatLon0.09_PT064H.grib2 2026-05-09 09:02 436K
20260509T06Z_MSC_RDPS_WindSpeed_IsbL-0225_RLatLon0.09_PT064H.grib2 2026-05-09 09:02 445K
20260509T06Z_MSC_RDPS_WindSpeed_IsbL-0250_RLatLon0.09_PT064H.grib2 2026-05-09 09:02 451K
20260509T06Z_MSC_RDPS_WindSpeed_IsbL-0275_RLatLon0.09_PT064H.grib2 2026-05-09 09:02 471K
20260509T06Z_MSC_RDPS_WindSpeed_IsbL-0300_RLatLon0.09_PT064H.grib2 2026-05-09 09:02 470K
20260509T06Z_MSC_RDPS_WindSpeed_IsbL-0350_RLatLon0.09_PT064H.grib2 2026-05-09 09:02 477K
20260509T06Z_MSC_RDPS_WindSpeed_IsbL-0400_RLatLon0.09_PT064H.grib2 2026-05-09 09:02 462K
20260509T06Z_MSC_RDPS_WindSpeed_IsbL-0450_RLatLon0.09_PT064H.grib2 2026-05-09 09:02 466K
20260509T06Z_MSC_RDPS_WindSpeed_IsbL-0500_RLatLon0.09_PT064H.grib2 2026-05-09 09:02 472K
20260509T06Z_MSC_RDPS_WindSpeed_IsbL-0550_RLatLon0.09_PT064H.grib2 2026-05-09 09:02 473K
20260509T06Z_MSC_RDPS_WindSpeed_IsbL-0600_RLatLon0.09_PT064H.grib2 2026-05-09 09:02 601K
20260509T06Z_MSC_RDPS_WindSpeed_IsbL-0650_RLatLon0.09_PT064H.grib2 2026-05-09 09:02 663K
20260509T06Z_MSC_RDPS_WindSpeed_IsbL-0700_RLatLon0.09_PT064H.grib2 2026-05-09 09:02 689K
20260509T06Z_MSC_RDPS_WindSpeed_IsbL-0750_RLatLon0.09_PT064H.grib2 2026-05-09 09:02 718K
20260509T06Z_MSC_RDPS_WindSpeed_IsbL-0800_RLatLon0.09_PT064H.grib2 2026-05-09 09:02 769K
20260509T06Z_MSC_RDPS_WindSpeed_IsbL-0850_RLatLon0.09_PT064H.grib2 2026-05-09 09:02 821K
20260509T06Z_MSC_RDPS_WindSpeed_IsbL-0875_RLatLon0.09_PT064H.grib2 2026-05-09 09:02 837K
20260509T06Z_MSC_RDPS_WindSpeed_IsbL-0900_RLatLon0.09_PT064H.grib2 2026-05-09 09:02 853K
20260509T06Z_MSC_RDPS_WindSpeed_IsbL-0925_RLatLon0.09_PT064H.grib2 2026-05-09 09:02 868K
20260509T06Z_MSC_RDPS_WindSpeed_IsbL-0950_RLatLon0.09_PT064H.grib2 2026-05-09 09:02 870K
20260509T06Z_MSC_RDPS_WindSpeed_IsbL-0970_RLatLon0.09_PT064H.grib2 2026-05-09 09:02 865K
20260509T06Z_MSC_RDPS_WindSpeed_IsbL-0985_RLatLon0.09_PT064H.grib2 2026-05-09 09:02 862K
20260509T06Z_MSC_RDPS_WindSpeed_IsbL-1000_RLatLon0.09_PT064H.grib2 2026-05-09 09:02 856K
20260509T06Z_MSC_RDPS_WindSpeed_IsbL-1015_RLatLon0.09_PT064H.grib2 2026-05-09 09:02 849K
20260509T06Z_MSC_RDPS_WindU_AGL-10m_RLatLon0.09_PT064H.grib2 2026-05-09 09:02 438K
20260509T06Z_MSC_RDPS_WindU_AGL-120m_RLatLon0.09_PT064H.grib2 2026-05-09 09:02 420K
20260509T06Z_MSC_RDPS_WindU_AGL-40m_RLatLon0.09_PT064H.grib2 2026-05-09 09:02 541K
20260509T06Z_MSC_RDPS_WindU_AGL-80m_RLatLon0.09_PT064H.grib2 2026-05-09 09:02 539K
20260509T06Z_MSC_RDPS_WindU_IsbL-0001_RLatLon0.09_PT064H.grib2 2026-05-09 09:02 244K
20260509T06Z_MSC_RDPS_WindU_IsbL-0005_RLatLon0.09_PT064H.grib2 2026-05-09 09:02 287K
20260509T06Z_MSC_RDPS_WindU_IsbL-0010_RLatLon0.09_PT064H.grib2 2026-05-09 09:02 300K
20260509T06Z_MSC_RDPS_WindU_IsbL-0020_RLatLon0.09_PT064H.grib2 2026-05-09 09:02 357K
20260509T06Z_MSC_RDPS_WindU_IsbL-0030_RLatLon0.09_PT064H.grib2 2026-05-09 09:02 354K
20260509T06Z_MSC_RDPS_WindU_IsbL-0050_RLatLon0.09_PT064H.grib2 2026-05-09 09:02 339K
20260509T06Z_MSC_RDPS_WindU_IsbL-0100_RLatLon0.09_PT064H.grib2 2026-05-09 09:02 425K
20260509T06Z_MSC_RDPS_WindU_IsbL-0150_RLatLon0.09_PT064H.grib2 2026-05-09 09:02 387K
20260509T06Z_MSC_RDPS_WindU_IsbL-0175_RLatLon0.09_PT064H.grib2 2026-05-09 09:02 412K
20260509T06Z_MSC_RDPS_WindU_IsbL-0200_RLatLon0.09_PT064H.grib2 2026-05-09 09:02 430K
20260509T06Z_MSC_RDPS_WindU_IsbL-0225_RLatLon0.09_PT064H.grib2 2026-05-09 09:02 437K
20260509T06Z_MSC_RDPS_WindU_IsbL-0250_RLatLon0.09_PT064H.grib2 2026-05-09 09:02 440K
20260509T06Z_MSC_RDPS_WindU_IsbL-0275_RLatLon0.09_PT064H.grib2 2026-05-09 09:02 358K
20260509T06Z_MSC_RDPS_WindU_IsbL-0300_RLatLon0.09_PT064H.grib2 2026-05-09 09:02 356K
20260509T06Z_MSC_RDPS_WindU_IsbL-0350_RLatLon0.09_PT064H.grib2 2026-05-09 09:02 362K
20260509T06Z_MSC_RDPS_WindU_IsbL-0400_RLatLon0.09_PT064H.grib2 2026-05-09 09:02 466K
20260509T06Z_MSC_RDPS_WindU_IsbL-0450_RLatLon0.09_PT064H.grib2 2026-05-09 09:02 471K
20260509T06Z_MSC_RDPS_WindU_IsbL-0500_RLatLon0.09_PT064H.grib2 2026-05-09 09:02 476K
20260509T06Z_MSC_RDPS_WindU_IsbL-0550_RLatLon0.09_PT064H.grib2 2026-05-09 09:02 478K
20260509T06Z_MSC_RDPS_WindU_IsbL-0600_RLatLon0.09_PT064H.grib2 2026-05-09 09:02 470K
20260509T06Z_MSC_RDPS_WindU_IsbL-0650_RLatLon0.09_PT064H.grib2 2026-05-09 09:02 489K
20260509T06Z_MSC_RDPS_WindU_IsbL-0700_RLatLon0.09_PT064H.grib2 2026-05-09 09:02 512K
20260509T06Z_MSC_RDPS_WindU_IsbL-0750_RLatLon0.09_PT064H.grib2 2026-05-09 09:02 539K
20260509T06Z_MSC_RDPS_WindU_IsbL-0800_RLatLon0.09_PT064H.grib2 2026-05-09 09:02 583K
20260509T06Z_MSC_RDPS_WindU_IsbL-0850_RLatLon0.09_PT064H.grib2 2026-05-09 09:02 628K
20260509T06Z_MSC_RDPS_WindU_IsbL-0875_RLatLon0.09_PT064H.grib2 2026-05-09 09:02 643K
20260509T06Z_MSC_RDPS_WindU_IsbL-0900_RLatLon0.09_PT064H.grib2 2026-05-09 09:02 656K
20260509T06Z_MSC_RDPS_WindU_IsbL-0925_RLatLon0.09_PT064H.grib2 2026-05-09 09:02 666K
20260509T06Z_MSC_RDPS_WindU_IsbL-0950_RLatLon0.09_PT064H.grib2 2026-05-09 09:02 664K
20260509T06Z_MSC_RDPS_WindU_IsbL-0970_RLatLon0.09_PT064H.grib2 2026-05-09 09:02 660K
20260509T06Z_MSC_RDPS_WindU_IsbL-0985_RLatLon0.09_PT064H.grib2 2026-05-09 09:02 657K
20260509T06Z_MSC_RDPS_WindU_IsbL-1000_RLatLon0.09_PT064H.grib2 2026-05-09 09:02 792K
20260509T06Z_MSC_RDPS_WindU_IsbL-1015_RLatLon0.09_PT064H.grib2 2026-05-09 09:02 787K
20260509T06Z_MSC_RDPS_WindV_AGL-10m_RLatLon0.09_PT064H.grib2 2026-05-09 09:02 435K
20260509T06Z_MSC_RDPS_WindV_AGL-120m_RLatLon0.09_PT064H.grib2 2026-05-09 09:02 534K
20260509T06Z_MSC_RDPS_WindV_AGL-40m_RLatLon0.09_PT064H.grib2 2026-05-09 09:02 537K
20260509T06Z_MSC_RDPS_WindV_AGL-80m_RLatLon0.09_PT064H.grib2 2026-05-09 09:02 535K
20260509T06Z_MSC_RDPS_WindV_IsbL-0001_RLatLon0.09_PT064H.grib2 2026-05-09 09:02 294K
20260509T06Z_MSC_RDPS_WindV_IsbL-0005_RLatLon0.09_PT064H.grib2 2026-05-09 09:02 288K
20260509T06Z_MSC_RDPS_WindV_IsbL-0010_RLatLon0.09_PT064H.grib2 2026-05-09 09:02 302K
20260509T06Z_MSC_RDPS_WindV_IsbL-0020_RLatLon0.09_PT064H.grib2 2026-05-09 09:02 360K
20260509T06Z_MSC_RDPS_WindV_IsbL-0030_RLatLon0.09_PT064H.grib2 2026-05-09 09:02 318K
20260509T06Z_MSC_RDPS_WindV_IsbL-0050_RLatLon0.09_PT064H.grib2 2026-05-09 09:02 338K
20260509T06Z_MSC_RDPS_WindV_IsbL-0100_RLatLon0.09_PT064H.grib2 2026-05-09 09:02 420K
20260509T06Z_MSC_RDPS_WindV_IsbL-0150_RLatLon0.09_PT064H.grib2 2026-05-09 09:02 362K
20260509T06Z_MSC_RDPS_WindV_IsbL-0175_RLatLon0.09_PT064H.grib2 2026-05-09 09:02 411K
20260509T06Z_MSC_RDPS_WindV_IsbL-0200_RLatLon0.09_PT064H.grib2 2026-05-09 09:02 426K
20260509T06Z_MSC_RDPS_WindV_IsbL-0225_RLatLon0.09_PT064H.grib2 2026-05-09 09:02 337K
20260509T06Z_MSC_RDPS_WindV_IsbL-0250_RLatLon0.09_PT064H.grib2 2026-05-09 09:02 340K
20260509T06Z_MSC_RDPS_WindV_IsbL-0275_RLatLon0.09_PT064H.grib2 2026-05-09 09:02 357K
20260509T06Z_MSC_RDPS_WindV_IsbL-0300_RLatLon0.09_PT064H.grib2 2026-05-09 09:02 353K
20260509T06Z_MSC_RDPS_WindV_IsbL-0350_RLatLon0.09_PT064H.grib2 2026-05-09 09:02 359K
20260509T06Z_MSC_RDPS_WindV_IsbL-0400_RLatLon0.09_PT064H.grib2 2026-05-09 09:02 362K
20260509T06Z_MSC_RDPS_WindV_IsbL-0450_RLatLon0.09_PT064H.grib2 2026-05-09 09:02 468K
20260509T06Z_MSC_RDPS_WindV_IsbL-0500_RLatLon0.09_PT064H.grib2 2026-05-09 09:02 473K
20260509T06Z_MSC_RDPS_WindV_IsbL-0550_RLatLon0.09_PT064H.grib2 2026-05-09 09:02 475K
20260509T06Z_MSC_RDPS_WindV_IsbL-0600_RLatLon0.09_PT064H.grib2 2026-05-09 09:02 483K
20260509T06Z_MSC_RDPS_WindV_IsbL-0650_RLatLon0.09_PT064H.grib2 2026-05-09 09:02 502K
20260509T06Z_MSC_RDPS_WindV_IsbL-0700_RLatLon0.09_PT064H.grib2 2026-05-09 09:02 509K
20260509T06Z_MSC_RDPS_WindV_IsbL-0750_RLatLon0.09_PT064H.grib2 2026-05-09 09:02 535K
20260509T06Z_MSC_RDPS_WindV_IsbL-0800_RLatLon0.09_PT064H.grib2 2026-05-09 09:02 577K
20260509T06Z_MSC_RDPS_WindV_IsbL-0850_RLatLon0.09_PT064H.grib2 2026-05-09 09:02 622K
20260509T06Z_MSC_RDPS_WindV_IsbL-0875_RLatLon0.09_PT064H.grib2 2026-05-09 09:02 637K
20260509T06Z_MSC_RDPS_WindV_IsbL-0900_RLatLon0.09_PT064H.grib2 2026-05-09 09:02 650K
20260509T06Z_MSC_RDPS_WindV_IsbL-0925_RLatLon0.09_PT064H.grib2 2026-05-09 09:02 661K
20260509T06Z_MSC_RDPS_WindV_IsbL-0950_RLatLon0.09_PT064H.grib2 2026-05-09 09:02 659K
20260509T06Z_MSC_RDPS_WindV_IsbL-0970_RLatLon0.09_PT064H.grib2 2026-05-09 09:02 655K
20260509T06Z_MSC_RDPS_WindV_IsbL-0985_RLatLon0.09_PT064H.grib2 2026-05-09 09:02 654K
20260509T06Z_MSC_RDPS_WindV_IsbL-1000_RLatLon0.09_PT064H.grib2 2026-05-09 09:02 790K
20260509T06Z_MSC_RDPS_WindV_IsbL-1015_RLatLon0.09_PT064H.grib2 2026-05-09 09:02 831K